Time,TemperatureF,DewpointF,PressureIn,WindDirection,WindDirectionDegrees,WindSpeedMPH,WindSpeedGustMPH,Humidity,HourlyPrecipIn,Conditions,Clouds,dailyrainin,SoftwareType,DateUTC
2013-05-26 00:03:00,51.4,51.4,30.22,SE,129,0.0,0.0,100,0.00,,OVC044,0.00,VWS V14.01,2013-05-26 05:03:00,
2013-05-26 00:08:00,51.6,51.6,30.22,SSE,151,0.0,0.0,100,0.00,,OVC044,0.00,VWS V14.01,2013-05-26 05:08:00,
2013-05-26 00:13:00,51.6,51.6,30.22,East,96,0.0,3.6,100,0.00,,OVC044,0.00,VWS V14.01,2013-05-26 05:13:00,
2013-05-26 00:19:00,51.8,51.8,30.22,East,96,0.0,0.0,100,0.00,,OVC044,0.00,VWS V14.01,2013-05-26 05:19:00,
2013-05-26 00:24:00,51.8,51.8,30.22,SE,130,0.0,5.8,100,0.00,,OVC044,0.00,VWS V14.01,2013-05-26 05:24:00,
2013-05-26 00:29:00,51.8,51.8,30.22,SE,130,0.0,0.0,100,0.00,,OVC044,0.00,VWS V14.01,2013-05-26 05:29:00,
2013-05-26 00:34:00,52.0,52.0,30.22,SE,130,0.0,0.0,100,0.00,,OVC044,0.00,VWS V14.01,2013-05-26 05:34:00,
2013-05-26 00:39:00,52.0,52.0,30.22,SE,130,0.0,0.0,100,0.00,,OVC044,0.00,VWS V14.01,2013-05-26 05:39:00,
2013-05-26 00:44:00,52.0,52.0,30.22,ESE,108,0.0,0.0,100,0.00,,OVC044,0.00,VWS V14.01,2013-05-26 05:44:00,
2013-05-26 00:49:00,52.0,52.0,30.22,East,96,0.0,2.7,100,0.00,,OVC044,0.00,VWS V14.01,2013-05-26 05:49:00,
2013-05-26 00:54:00,52.2,52.2,30.22,East,81,0.0,2.2,100,0.00,,OVC044,0.00,VWS V14.01,2013-05-26 05:54:00,
2013-05-26 00:59:00,52.2,52.2,30.22,ENE,78,0.0,0.0,100,0.00,,OVC044,0.00,VWS V14.01,2013-05-26 05:59:00,
2013-05-26 01:04:00,52.2,52.2,30.22,ENE,78,0.0,0.0,100,0.00,,OVC044,0.00,VWS V14.01,2013-05-26 06:04:00,
2013-05-26 01:09:00,52.2,52.2,30.22,SE,132,0.0,3.1,100,0.00,,OVC044,0.00,VWS V14.01,2013-05-26 06:09:00,
2013-05-26 01:14:00,52.2,52.2,30.22,East,79,0.0,4.0,100,0.00,,OVC044,0.00,VWS V14.01,2013-05-26 06:14:00,
2013-05-26 01:20:00,52.2,52.2,30.22,ENE,77,0.0,0.0,100,0.00,,OVC044,0.00,VWS V14.01,2013-05-26 06:20:00,
2013-05-26 01:25:00,52.2,52.2,30.22,NE,42,4.0,4.0,100,0.00,,OVC044,0.00,VWS V14.01,2013-05-26 06:25:00,
2013-05-26 01:30:00,52.2,52.2,30.19,ENE,68,0.0,3.1,100,0.00,,OVC044,0.00,VWS V14.01,2013-05-26 06:30:00,
2013-05-26 01:35:00,52.2,52.2,30.19,East,101,0.0,4.0,100,0.00,,OVC044,0.00,VWS V14.01,2013-05-26 06:35:00,
2013-05-26 01:40:00,52.2,52.2,30.19,ESE,122,0.0,4.9,100,0.00,,OVC044,0.00,VWS V14.01,2013-05-26 06:40:00,
2013-05-26 01:45:00,52.2,52.2,30.19,East,93,0.0,2.7,100,0.00,,OVC044,0.00,VWS V14.01,2013-05-26 06:45:00,
2013-05-26 01:50:00,52.0,52.0,30.19,East,100,0.0,0.0,100,0.00,,OVC044,0.00,VWS V14.01,2013-05-26 06:50:00,
2013-05-26 01:55:00,52.0,52.0,30.19,NE,44,2.2,2.2,100,0.00,,OVC044,0.00,VWS V14.01,2013-05-26 06:55:00,
2013-05-26 02:00:00,52.0,52.0,30.19,East,96,0.0,2.7,100,0.00,,OVC044,0.00,VWS V14.01,2013-05-26 07:00:00,
2013-05-26 02:05:00,52.0,52.0,30.19,SSE,160,0.0,0.0,100,0.00,,OVC044,0.00,VWS V14.01,2013-05-26 07:05:00,
2013-05-26 02:10:00,52.0,52.0,30.19,East,100,0.0,0.0,100,0.00,,OVC044,0.00,VWS V14.01,2013-05-26 07:10:00,
2013-05-26 02:15:00,52.0,52.0,30.19,SE,131,0.0,0.0,100,0.00,,OVC044,0.00,VWS V14.01,2013-05-26 07:15:00,
2013-05-26 02:20:00,52.0,52.0,30.19,East,96,0.0,0.0,100,0.00,,OVC044,0.00,VWS V14.01,2013-05-26 07:20:00,
2013-05-26 02:25:00,52.0,52.0,30.19,East,98,2.7,2.7,100,0.00,,OVC044,0.00,VWS V14.01,2013-05-26 07:25:00,
2013-05-26 02:30:00,52.0,52.0,30.19,ESE,105,0.0,0.0,100,0.00,,OVC044,0.00,VWS V14.01,2013-05-26 07:30:00,
2013-05-26 02:36:00,52.0,52.0,30.19,SSE,162,0.0,0.0,100,0.00,,OVC044,0.00,VWS V14.01,2013-05-26 07:36:00,
2013-05-26 02:41:00,52.0,52.0,30.19,SE,129,0.0,0.0,100,0.00,,OVC044,0.00,VWS V14.01,2013-05-26 07:41:00,
2013-05-26 02:46:00,52.0,52.0,30.16,NE,53,0.0,0.0,100,0.00,,OVC044,0.00,VWS V14.01,2013-05-26 07:46:00,
2013-05-26 02:51:00,52.2,52.2,30.16,South,173,0.0,0.0,100,0.00,,OVC044,0.00,VWS V14.01,2013-05-26 07:51:00,
2013-05-26 02:56:00,52.2,52.2,30.16,East,89,0.0,0.0,100,0.00,,OVC044,0.00,VWS V14.01,2013-05-26 07:56:00,
2013-05-26 03:01:00,52.2,52.2,30.19,SE,140,0.0,0.0,100,0.00,,OVC044,0.00,VWS V14.01,2013-05-26 08:01:00,
2013-05-26 03:06:00,52.2,52.2,30.19,East,85,0.0,0.0,100,0.00,,OVC044,0.00,VWS V14.01,2013-05-26 08:06:00,
2013-05-26 03:11:00,52.2,52.2,30.19,East,80,0.0,0.0,100,0.00,,OVC044,0.00,VWS V14.01,2013-05-26 08:11:00,
2013-05-26 03:16:00,52.2,52.2,30.19,East,91,0.0,4.5,100,0.00,,OVC044,0.00,VWS V14.01,2013-05-26 08:16:00,
2013-05-26 03:21:00,52.2,52.2,30.19,East,80,0.0,0.0,100,0.00,,OVC044,0.00,VWS V14.01,2013-05-26 08:21:00,
2013-05-26 03:26:00,52.2,52.2,30.19,ENE,63,0.0,0.0,100,0.00,,OVC042,0.00,VWS V14.01,2013-05-26 08:26:00,
2013-05-26 03:32:00,52.2,52.2,30.19,NE,37,0.0,0.0,100,0.00,,OVC042,0.00,VWS V14.01,2013-05-26 08:32:00,
2013-05-26 03:37:00,52.2,52.2,30.19,ESE,106,0.0,3.1,100,0.00,,OVC042,0.00,VWS V14.01,2013-05-26 08:37:00,
2013-05-26 03:42:00,52.2,52.2,30.19,ENE,78,3.1,4.9,100,0.00,,OVC042,0.00,VWS V14.01,2013-05-26 08:42:00,
2013-05-26 03:47:00,52.2,52.2,30.16,ENE,64,0.0,4.0,100,0.00,,OVC042,0.00,VWS V14.01,2013-05-26 08:47:00,
2013-05-26 03:52:00,52.2,52.2,30.16,NE,54,0.0,0.0,100,0.00,,OVC042,0.00,VWS V14.01,2013-05-26 08:52:00,
2013-05-26 03:57:00,52.2,52.2,30.16,ENE,65,0.0,2.2,100,0.00,,OVC042,0.00,VWS V14.01,2013-05-26 08:57:00,
2013-05-26 04:02:00,52.2,52.2,30.16,NNE,24,0.0,5.8,100,0.00,,OVC042,0.00,VWS V14.01,2013-05-26 09:02:00,
2013-05-26 04:07:00,52.2,52.2,30.16,ESE,102,0.0,3.6,100,0.00,,OVC042,0.00,VWS V14.01,2013-05-26 09:07:00,
2013-05-26 04:12:00,52.2,52.2,30.16,SE,129,0.0,0.0,100,0.00,,OVC042,0.00,VWS V14.01,2013-05-26 09:12:00,
2013-05-26 04:17:00,52.2,52.2,30.19,ESE,115,0.0,4.0,100,0.00,,OVC042,0.00,VWS V14.01,2013-05-26 09:17:00,
2013-05-26 04:22:00,52.2,52.2,30.19,ESE,123,0.0,0.0,100,0.00,,OVC042,0.00,VWS V14.01,2013-05-26 09:22:00,
2013-05-26 04:28:00,52.2,51.6,30.19,ENE,62,0.0,3.6,98,0.00,,OVC042,0.00,VWS V14.01,2013-05-26 09:28:00,
2013-05-26 04:33:00,52.2,51.6,30.19,NW,326,0.0,3.6,98,0.00,,OVC042,0.00,VWS V14.01,2013-05-26 09:33:00,
2013-05-26 04:38:00,52.2,51.6,30.19,NE,38,0.0,3.1,98,0.00,,OVC042,0.00,VWS V14.01,2013-05-26 09:38:00,
2013-05-26 04:43:00,52.2,51.6,30.19,ESE,123,3.6,4.0,98,0.00,,OVC042,0.00,VWS V14.01,2013-05-26 09:43:00,
2013-05-26 04:48:00,52.3,51.8,30.19,ESE,102,0.0,0.0,98,0.00,,OVC042,0.00,VWS V14.01,2013-05-26 09:48:00,
2013-05-26 04:53:00,52.3,50.8,30.19,ESE,116,3.6,4.9,94,0.00,,OVC042,0.00,VWS V14.01,2013-05-26 09:53:00,
2013-05-26 04:58:00,52.5,51.0,30.19,ESE,109,0.0,2.2,94,0.00,,OVC042,0.00,VWS V14.01,2013-05-26 09:58:00,
2013-05-26 05:03:00,52.5,51.0,30.19,ESE,118,4.0,4.0,94,0.00,,OVC040,0.00,VWS V14.01,2013-05-26 10:03:00,
2013-05-26 05:08:00,52.5,51.0,30.19,SSE,167,0.0,4.0,94,0.00,,OVC040,0.00,VWS V14.01,2013-05-26 10:08:00,
2013-05-26 05:13:00,52.5,51.0,30.19,East,84,0.0,3.6,94,0.00,,OVC040,0.00,VWS V14.01,2013-05-26 10:13:00,
2013-05-26 05:18:00,52.5,51.0,30.19,SE,130,0.0,2.7,94,0.00,,OVC040,0.00,VWS V14.01,2013-05-26 10:18:00,
2013-05-26 05:23:00,52.5,50.0,30.19,SE,129,0.0,5.8,91,0.00,,OVC049,0.00,VWS V14.01,2013-05-26 10:23:00,
2013-05-26 05:29:00,52.7,50.2,30.19,ESE,123,2.7,5.8,91,0.00,,OVC049,0.00,VWS V14.01,2013-05-26 10:29:00,
2013-05-26 05:34:00,52.7,50.2,30.19,ESE,114,5.8,5.8,91,0.00,,OVC049,0.00,VWS V14.01,2013-05-26 10:34:00,
2013-05-26 05:39:00,52.7,50.2,30.19,SSW,212,0.0,5.4,91,0.00,,OVC049,0.00,VWS V14.01,2013-05-26 10:39:00,
2013-05-26 05:44:00,52.7,50.2,30.19,East,89,0.0,5.8,91,0.00,,,0.00,VWS V14.01,2013-05-26 10:44:00,
2013-05-26 05:49:00,52.7,50.2,30.16,ENE,73,0.0,4.0,91,0.00,,,0.00,VWS V14.01,2013-05-26 10:49:00,
2013-05-26 05:54:00,52.7,50.2,30.16,ENE,75,0.0,3.1,91,0.00,,,0.00,VWS V14.01,2013-05-26 10:54:00,
2013-05-26 05:59:00,52.7,50.2,30.16,ESE,115,0.0,2.7,91,0.00,,,0.00,VWS V14.01,2013-05-26 10:59:00,
2013-05-26 06:04:00,52.7,50.2,30.19,ESE,117,5.4,5.4,91,0.00,,-RA,0.00,VWS V14.01,2013-05-26 11:04:00,
2013-05-26 06:09:00,52.7,50.2,30.19,SE,143,0.0,2.7,91,0.00,,-RA,0.00,VWS V14.01,2013-05-26 11:09:00,
2013-05-26 06:14:00,52.9,50.3,30.19,ESE,115,3.6,4.0,91,0.00,,-RA,0.00,VWS V14.01,2013-05-26 11:14:00,
2013-05-26 06:19:00,52.9,50.3,30.19,ENE,78,0.0,3.1,91,0.00,,-RA,0.00,VWS V14.01,2013-05-26 11:19:00,
2013-05-26 06:25:00,52.9,50.3,30.19,ENE,76,0.0,4.0,91,0.00,,OVC045,0.00,VWS V14.01,2013-05-26 11:25:00,
2013-05-26 06:30:00,52.9,50.3,30.19,ENE,68,0.0,5.8,91,0.00,,OVC045,0.00,VWS V14.01,2013-05-26 11:30:00,
2013-05-26 06:35:00,53.1,50.5,30.19,ESE,121,3.1,3.1,91,0.00,,OVC045,0.00,VWS V14.01,2013-05-26 11:35:00,
2013-05-26 06:40:00,53.1,50.5,30.19,East,96,0.0,4.0,91,0.00,,OVC045,0.00,VWS V14.01,2013-05-26 11:40:00,
2013-05-26 06:45:00,53.1,50.5,30.19,South,176,0.0,0.0,91,0.00,,OVC050,0.00,VWS V14.01,2013-05-26 11:45:00,
2013-05-26 06:50:00,53.1,47.2,30.19,SSE,149,0.0,0.0,80,0.00,,OVC050,0.00,VWS V14.01,2013-05-26 11:50:00,
2013-05-26 06:55:00,53.1,47.2,30.19,ESE,120,0.0,3.6,80,0.00,,OVC050,0.00,VWS V14.01,2013-05-26 11:55:00,
2013-05-26 07:00:00,53.1,47.2,30.19,SSE,161,0.0,0.0,80,0.00,,OVC050,0.00,VWS V14.01,2013-05-26 12:00:00,
2013-05-26 07:05:00,53.2,47.4,30.19,ESE,116,0.0,0.0,80,0.00,,OVC050,0.00,VWS V14.01,2013-05-26 12:05:00,
2013-05-26 07:10:00,53.2,47.4,30.19,SE,126,0.0,0.0,80,0.00,,OVC050,0.00,VWS V14.01,2013-05-26 12:10:00,
2013-05-26 07:15:00,53.4,47.6,30.19,SE,145,0.0,0.0,80,0.00,,-RA,0.00,VWS V14.01,2013-05-26 12:15:00,
2013-05-26 07:20:00,53.4,47.6,30.19,SE,132,0.0,0.0,80,0.00,,-RA,0.00,VWS V14.01,2013-05-26 12:20:00,
2013-05-26 07:26:00,53.4,47.6,30.19,East,93,0.0,0.0,80,0.00,,-RA,0.00,VWS V14.01,2013-05-26 12:26:00,
2013-05-26 07:31:00,53.6,47.8,30.19,SE,146,4.9,4.9,80,0.00,,-RA,0.00,VWS V14.01,2013-05-26 12:31:00,
2013-05-26 07:36:00,53.6,47.8,30.19,SSE,160,0.0,0.0,80,0.00,,-RA,0.00,VWS V14.01,2013-05-26 12:36:00,
2013-05-26 07:41:00,53.8,47.9,30.19,NE,42,0.0,3.1,80,0.00,,-RA,0.00,VWS V14.01,2013-05-26 12:41:00,
2013-05-26 07:46:00,53.8,47.9,30.19,East,100,2.2,2.2,80,0.00,,RA,0.00,VWS V14.01,2013-05-26 12:46:00,
2013-05-26 07:51:00,53.8,47.9,30.19,SE,126,0.0,2.2,80,0.00,,RA,0.00,VWS V14.01,2013-05-26 12:51:00,
2013-05-26 07:56:00,54.0,48.1,30.19,ENE,73,0.0,3.1,80,0.00,,RA,0.00,VWS V14.01,2013-05-26 12:56:00,
2013-05-26 08:01:00,54.0,48.1,30.19,SE,141,3.6,4.0,80,0.00,,RA,0.00,VWS V14.01,2013-05-26 13:01:00,
2013-05-26 08:06:00,54.1,48.3,30.19,North,1,0.0,0.0,80,0.00,,OVC050,0.00,VWS V14.01,2013-05-26 13:06:00,
2013-05-26 08:11:00,54.1,48.3,30.19,NNE,27,0.0,0.0,80,0.00,,OVC050,0.00,VWS V14.01,2013-05-26 13:11:00,
2013-05-26 08:16:00,54.1,48.3,30.22,East,98,0.0,0.0,80,0.00,,OVC050,0.00,VWS V14.01,2013-05-26 13:16:00,
2013-05-26 08:22:00,54.1,48.3,30.22,East,100,3.6,3.6,80,0.00,,OVC050,0.00,VWS V14.01,2013-05-26 13:22:00,
2013-05-26 08:27:00,54.1,48.3,30.22,South,178,0.0,2.7,80,0.00,,-RA,0.00,VWS V14.01,2013-05-26 13:27:00,
2013-05-26 08:32:00,54.1,48.3,30.22,SE,130,0.0,3.1,80,0.00,,-RA,0.00,VWS V14.01,2013-05-26 13:32:00,
2013-05-26 08:37:00,54.0,48.1,30.22,ESE,117,0.0,0.0,80,0.00,,-RA,0.00,VWS V14.01,2013-05-26 13:37:00,
2013-05-26 08:42:00,54.0,48.1,30.22,ESE,102,0.0,5.8,80,0.00,,BKN110,0.00,VWS V14.01,2013-05-26 13:42:00,
2013-05-26 08:47:00,54.0,48.1,30.22,South,176,0.0,4.0,80,0.00,,BKN110,0.00,VWS V14.01,2013-05-26 13:47:00,
2013-05-26 08:52:00,54.0,48.1,30.22,SSE,165,4.0,4.0,80,0.00,,BKN110,0.00,VWS V14.01,2013-05-26 13:52:00,
2013-05-26 08:57:00,53.6,47.8,30.22,SE,129,0.0,2.7,80,0.00,,BKN110,0.00,VWS V14.01,2013-05-26 13:57:00,
2013-05-26 09:02:00,53.2,47.4,30.22,SSE,149,0.0,0.0,80,0.00,,RA,0.00,VWS V14.01,2013-05-26 14:02:00,
2013-05-26 09:07:00,52.9,47.0,30.22,ESE,107,0.0,2.2,80,0.04,,RA,0.04,VWS V14.01,2013-05-26 14:07:00,
2013-05-26 09:12:00,52.5,46.7,30.22,SE,127,0.0,2.2,80,0.04,,RA,0.04,VWS V14.01,2013-05-26 14:12:00,
2013-05-26 09:18:00,52.3,46.5,30.22,SSE,156,0.0,0.0,80,0.08,,RA,0.08,VWS V14.01,2013-05-26 14:18:00,
2013-05-26 09:23:00,52.2,46.3,30.22,South,189,0.0,0.0,80,0.12,,OVC100,0.12,VWS V14.01,2013-05-26 14:23:00,
2013-05-26 09:28:00,52.0,46.2,30.22,South,189,0.0,0.0,80,0.16,,OVC100,0.16,VWS V14.01,2013-05-26 14:28:00,
2013-05-26 09:33:00,52.0,46.2,30.25,South,189,0.0,0.0,80,0.20,,OVC100,0.20,VWS V14.01,2013-05-26 14:33:00,
2013-05-26 09:38:00,51.8,49.3,30.25,South,189,0.0,0.0,91,0.20,,OVC100,0.20,VWS V14.01,2013-05-26 14:38:00,
2013-05-26 09:43:00,52.0,49.4,30.25,East,79,0.0,0.0,91,0.24,,OVC090,0.24,VWS V14.01,2013-05-26 14:43:00,
2013-05-26 09:48:00,52.0,49.4,30.22,NE,44,3.1,5.4,91,0.24,,OVC090,0.24,VWS V14.01,2013-05-26 14:48:00,
2013-05-26 09:53:00,52.0,49.4,30.22,ESE,118,0.0,6.3,91,0.28,,OVC090,0.28,VWS V14.01,2013-05-26 14:53:00,
2013-05-26 09:58:00,52.0,49.4,30.22,ENE,62,0.0,5.4,91,0.31,,OVC090,0.31,VWS V14.01,2013-05-26 14:58:00,
2013-05-26 10:03:00,51.8,49.3,30.19,ENE,77,0.0,0.0,91,0.39,,OVC085,0.39,VWS V14.01,2013-05-26 15:03:00,
2013-05-26 10:09:00,51.8,49.3,30.19,ESE,107,0.0,0.0,91,0.39,,OVC085,0.43,VWS V14.01,2013-05-26 15:09:00,
2013-05-26 10:14:00,51.8,50.3,30.19,ESE,118,0.0,0.0,94,0.39,,OVC085,0.43,VWS V14.01,2013-05-26 15:14:00,
2013-05-26 10:19:00,51.6,50.1,30.19,ESE,114,2.2,3.6,94,0.39,,OVC085,0.47,VWS V14.01,2013-05-26 15:19:00,
2013-05-26 10:24:00,51.6,51.1,30.19,NW,322,0.0,4.9,98,0.43,,OVC075,0.51,VWS V14.01,2013-05-26 15:24:00,
2013-05-26 10:29:00,51.8,51.3,30.19,SSW,213,0.0,0.0,98,0.39,,OVC075,0.55,VWS V14.01,2013-05-26 15:29:00,
2013-05-26 10:34:00,52.0,51.4,30.22,SSW,207,0.0,0.0,98,0.39,,OVC075,0.55,VWS V14.01,2013-05-26 15:34:00,
2013-05-26 10:39:00,52.0,51.4,30.22,SE,129,0.0,0.0,98,0.39,,OVC075,0.59,VWS V14.01,2013-05-26 15:39:00,
2013-05-26 10:44:00,52.2,52.2,30.22,SE,126,2.2,3.1,100,0.43,,OVC075,0.63,VWS V14.01,2013-05-26 15:44:00,
2013-05-26 10:49:00,52.2,52.2,30.22,SE,142,0.0,2.7,100,0.39,,OVC075,0.63,VWS V14.01,2013-05-26 15:49:00,
2013-05-26 10:54:00,52.3,52.3,30.22,East,81,4.9,4.9,100,0.39,,OVC075,0.67,VWS V14.01,2013-05-26 15:54:00,
2013-05-26 10:59:00,52.3,52.3,30.19,East,97,0.0,4.0,100,0.39,,OVC075,0.67,VWS V14.01,2013-05-26 15:59:00,
2013-05-26 11:05:00,52.7,52.7,30.19,SE,135,0.0,0.0,100,0.35,,-RA,0.67,VWS V14.01,2013-05-26 16:05:00,
2013-05-26 11:10:00,53.1,53.1,30.19,SE,142,0.0,2.7,100,0.31,,-RA,0.71,VWS V14.01,2013-05-26 16:10:00,
2013-05-26 11:15:00,53.4,53.4,30.19,SE,136,0.0,2.2,100,0.28,,-RA,0.71,VWS V14.01,2013-05-26 16:15:00,
2013-05-26 11:20:00,53.8,53.8,30.19,SE,127,3.1,3.1,100,0.24,,-RA,0.71,VWS V14.01,2013-05-26 16:20:00,
2013-05-26 11:25:00,54.0,54.0,30.19,SSE,158,0.0,4.0,100,0.24,,OVC048,0.71,VWS V14.01,2013-05-26 16:25:00,
2013-05-26 11:30:00,54.3,54.3,30.19,SE,129,2.7,3.1,100,0.20,,OVC048,0.71,VWS V14.01,2013-05-26 16:30:00,
2013-05-26 11:35:00,54.5,54.5,30.19,South,171,2.7,3.1,100,0.16,,OVC048,0.71,VWS V14.01,2013-05-26 16:35:00,
2013-05-26 11:40:00,54.7,54.7,30.19,South,177,0.0,0.0,100,0.12,,OVC048,0.71,VWS V14.01,2013-05-26 16:40:00,
2013-05-26 11:45:00,54.9,54.9,30.16,SSE,156,2.7,3.1,100,0.08,,OVC035,0.71,VWS V14.01,2013-05-26 16:45:00,
2013-05-26 11:50:00,55.2,55.2,30.16,South,184,0.0,0.0,100,0.08,,OVC035,0.71,VWS V14.01,2013-05-26 16:50:00,
2013-05-26 11:55:00,55.6,55.6,30.16,South,189,0.0,0.0,100,0.04,,OVC035,0.71,VWS V14.01,2013-05-26 16:55:00,
2013-05-26 12:00:00,56.1,56.1,30.16,SSW,196,2.7,2.7,100,0.04,,OVC035,0.71,VWS V14.01,2013-05-26 17:00:00,
2013-05-26 12:05:00,56.7,56.7,30.16,SE,145,3.6,4.9,100,0.04,,OVC035,0.71,VWS V14.01,2013-05-26 17:05:00,
2013-05-26 12:10:00,56.8,56.8,30.16,SE,135,0.0,3.1,100,0.00,,OVC035,0.71,VWS V14.01,2013-05-26 17:10:00,
2013-05-26 12:16:00,57.6,57.6,30.16,SE,133,2.7,2.7,100,0.00,,-RA,0.71,VWS V14.01,2013-05-26 17:16:00,
2013-05-26 12:21:00,58.1,58.1,30.16,SW,222,0.0,3.6,100,0.00,,-RA,0.71,VWS V14.01,2013-05-26 17:21:00,
2013-05-26 12:26:00,58.6,58.6,30.16,ESE,119,2.7,4.0,100,0.00,,-RA,0.71,VWS V14.01,2013-05-26 17:26:00,
2013-05-26 12:31:00,59.4,59.4,30.16,SSW,200,0.0,5.4,100,0.00,,-RA,0.71,VWS V14.01,2013-05-26 17:31:00,
2013-05-26 12:36:00,59.9,59.9,30.16,South,173,3.6,5.8,100,0.00,,-RA,0.71,VWS V14.01,2013-05-26 17:36:00,
2013-05-26 12:41:00,60.3,60.3,30.16,South,191,2.7,5.4,100,0.00,,-RA,0.71,VWS V14.01,2013-05-26 17:41:00,
2013-05-26 12:46:00,60.8,60.8,30.16,WSW,238,2.7,5.8,100,0.00,,SCT070,0.71,VWS V14.01,2013-05-26 17:46:00,
2013-05-26 12:51:00,61.2,61.2,30.16,SSW,197,5.8,8.1,100,0.00,,SCT070,0.71,VWS V14.01,2013-05-26 17:51:00,
2013-05-26 12:56:00,61.3,61.3,30.16,SE,146,3.6,6.3,100,0.00,,SCT070,0.71,VWS V14.01,2013-05-26 17:56:00,
2013-05-26 13:01:00,61.7,60.1,30.13,SE,141,3.1,7.6,94,0.00,,SCT070,0.71,VWS V14.01,2013-05-26 18:01:00,
2013-05-26 13:06:00,62.2,60.7,30.13,SSE,158,0.0,5.8,94,0.00,,SCT085,0.71,VWS V14.01,2013-05-26 18:06:00,
2013-05-26 13:12:00,63.0,59.2,30.13,WSW,239,8.7,8.7,88,0.00,,SCT085,0.71,VWS V14.01,2013-05-26 18:12:00,
2013-05-26 13:17:00,62.6,57.7,30.13,NNE,31,3.1,4.0,84,0.00,,SCT085,0.71,VWS V14.01,2013-05-26 18:17:00,
2013-05-26 13:22:00,63.0,58.1,30.13,SSE,148,4.0,4.0,84,0.00,,SCT085,0.71,VWS V14.01,2013-05-26 18:22:00,
2013-05-26 13:27:00,63.1,58.2,30.13,SE,126,0.0,4.0,84,0.00,,SCT075,0.71,VWS V14.01,2013-05-26 18:27:00,
2013-05-26 13:32:00,63.5,58.6,30.16,SE,128,3.6,3.6,84,0.00,,SCT075,0.71,VWS V14.01,2013-05-26 18:32:00,
2013-05-26 13:37:00,63.3,57.2,30.16,SSW,210,0.0,3.1,80,0.00,,SCT075,0.71,VWS V14.01,2013-05-26 18:37:00,
2013-05-26 13:42:00,63.1,57.0,30.16,SE,127,0.0,3.6,80,0.00,,SCT009,0.71,VWS V14.01,2013-05-26 18:42:00,
2013-05-26 13:47:00,62.8,56.7,30.16,SE,146,5.4,5.4,80,0.00,,SCT009,0.71,VWS V14.01,2013-05-26 18:47:00,
2013-05-26 13:52:00,62.4,57.5,30.16,South,170,0.0,4.0,84,0.00,,SCT009,0.71,VWS V14.01,2013-05-26 18:52:00,
2013-05-26 13:57:00,62.1,57.2,30.16,SE,146,0.0,0.0,84,0.00,,SCT009,0.71,VWS V14.01,2013-05-26 18:57:00,
2013-05-26 14:02:00,62.2,57.3,30.16,SSE,164,0.0,4.0,84,0.00,,SCT009,0.71,VWS V14.01,2013-05-26 19:02:00,
2013-05-26 14:08:00,62.4,57.5,30.16,SE,127,0.0,3.1,84,0.00,,SCT009,0.71,VWS V14.01,2013-05-26 19:08:00,
2013-05-26 14:13:00,62.8,57.9,30.16,SSE,162,0.0,3.6,84,0.00,,SCT009,0.71,VWS V14.01,2013-05-26 19:13:00,
2013-05-26 14:18:00,62.8,56.7,30.16,South,179,0.0,0.0,80,0.00,,SCT009,0.71,VWS V14.01,2013-05-26 19:18:00,
2013-05-26 14:23:00,62.8,56.7,30.16,East,90,0.0,3.6,80,0.00,,BKN090,0.71,VWS V14.01,2013-05-26 19:23:00,
2013-05-26 14:28:00,62.8,56.7,30.16,South,181,0.0,3.6,80,0.00,,BKN090,0.71,VWS V14.01,2013-05-26 19:28:00,
2013-05-26 14:33:00,62.8,56.7,30.16,SE,131,2.7,3.1,80,0.00,,BKN090,0.71,VWS V14.01,2013-05-26 19:33:00,
2013-05-26 14:38:00,62.8,56.7,30.16,SE,130,0.0,5.8,80,0.00,,BKN090,0.71,VWS V14.01,2013-05-26 19:38:00,
2013-05-26 14:43:00,62.8,56.7,30.16,SE,140,0.0,0.0,80,0.00,,BKN090,0.71,VWS V14.01,2013-05-26 19:43:00,
2013-05-26 14:48:00,63.0,56.9,30.16,SSE,168,2.2,4.0,80,0.00,,BKN090,0.71,VWS V14.01,2013-05-26 19:48:00,
2013-05-26 14:53:00,63.0,56.9,30.16,South,187,0.0,3.1,80,0.00,,BKN090,0.71,VWS V14.01,2013-05-26 19:53:00,
2013-05-26 14:59:00,63.5,58.6,30.16,South,176,0.0,0.0,84,0.00,,BKN090,0.71,VWS V14.01,2013-05-26 19:59:00,
2013-05-26 15:04:00,63.9,57.8,30.13,SSE,150,0.0,4.5,80,0.00,,-RA,0.71,VWS V14.01,2013-05-26 20:04:00,
2013-05-26 15:09:00,64.0,57.9,30.13,SSE,147,0.0,3.6,80,0.00,,-RA,0.71,VWS V14.01,2013-05-26 20:09:00,
2013-05-26 15:14:00,64.2,58.1,30.13,South,191,0.0,5.8,80,0.00,,-RA,0.71,VWS V14.01,2013-05-26 20:14:00,
2013-05-26 15:19:00,64.4,54.4,30.13,ESE,122,3.6,5.4,70,0.00,,-RA,0.71,VWS V14.01,2013-05-26 20:19:00,
2013-05-26 15:24:00,64.4,54.4,30.13,South,181,0.0,5.4,70,0.00,,OVC075,0.71,VWS V14.01,2013-05-26 20:24:00,
2013-05-26 15:29:00,65.5,55.5,30.13,SE,124,4.0,5.4,70,0.00,,OVC075,0.71,VWS V14.01,2013-05-26 20:29:00,
2013-05-26 15:34:00,66.2,56.1,30.13,NE,49,3.6,5.8,70,0.00,,OVC075,0.71,VWS V14.01,2013-05-26 20:34:00,
2013-05-26 15:39:00,66.9,56.8,30.13,SE,142,3.1,5.8,70,0.00,,OVC075,0.71,VWS V14.01,2013-05-26 20:39:00,
2013-05-26 15:44:00,67.3,57.2,30.10,SSE,154,2.7,6.3,70,0.00,,OVC055,0.71,VWS V14.01,2013-05-26 20:44:00,
2013-05-26 15:49:00,66.9,56.8,30.10,South,182,3.1,5.8,70,0.00,,OVC055,0.71,VWS V14.01,2013-05-26 20:49:00,
2013-05-26 15:54:00,66.6,56.5,30.10,South,183,4.0,5.4,70,0.00,,OVC055,0.71,VWS V14.01,2013-05-26 20:54:00,
2013-05-26 16:00:00,65.8,55.8,30.10,SE,128,5.4,6.3,70,0.00,,OVC055,0.71,VWS V14.01,2013-05-26 21:00:00,
2013-05-26 16:05:00,65.3,55.3,30.10,East,91,3.1,8.1,70,0.00,,OVC065,0.71,VWS V14.01,2013-05-26 21:05:00,
2013-05-26 16:10:00,64.9,54.9,30.10,ESE,120,3.1,4.9,70,0.00,,OVC065,0.71,VWS V14.01,2013-05-26 21:10:00,
2013-05-26 16:15:00,64.6,54.6,30.10,SE,146,0.0,4.5,70,0.00,,OVC065,0.71,VWS V14.01,2013-05-26 21:15:00,
2013-05-26 16:20:00,64.4,54.4,30.10,SE,141,0.0,0.0,70,0.00,,OVC065,0.71,VWS V14.01,2013-05-26 21:20:00,
2013-05-26 16:25:00,64.2,55.6,30.10,ESE,112,3.6,3.6,74,0.00,,OVC065,0.71,VWS V14.01,2013-05-26 21:25:00,
2013-05-26 16:30:00,64.2,55.6,30.10,SSE,147,0.0,0.0,74,0.00,,OVC065,0.71,VWS V14.01,2013-05-26 21:30:00,
2013-05-26 16:35:00,64.4,54.4,30.10,ESE,114,0.0,0.0,70,0.00,,OVC065,0.71,VWS V14.01,2013-05-26 21:35:00,
2013-05-26 16:40:00,64.6,54.6,30.10,SE,146,0.0,0.0,70,0.00,,OVC065,0.71,VWS V14.01,2013-05-26 21:40:00,
2013-05-26 16:45:00,64.8,54.8,30.10,SE,137,0.0,0.0,70,0.00,,BKN075,0.71,VWS V14.01,2013-05-26 21:45:00,
2013-05-26 16:50:00,65.3,55.3,30.10,SSE,152,3.6,3.6,70,0.00,,BKN075,0.71,VWS V14.01,2013-05-26 21:50:00,
2013-05-26 16:55:00,65.3,55.3,30.10,SE,133,0.0,4.0,70,0.00,,BKN075,0.71,VWS V14.01,2013-05-26 21:55:00,
2013-05-26 17:00:00,64.9,54.9,30.10,East,101,2.2,5.8,70,0.00,,BKN075,0.71,VWS V14.01,2013-05-26 22:00:00,
2013-05-26 17:06:00,64.8,54.8,30.10,South,183,0.0,2.7,70,0.00,,BKN075,0.71,VWS V14.01,2013-05-26 22:06:00,
2013-05-26 17:11:00,64.8,54.8,30.10,SE,125,0.0,2.7,70,0.00,,BKN075,0.71,VWS V14.01,2013-05-26 22:11:00,
2013-05-26 17:16:00,64.6,54.6,30.07,SE,145,0.0,0.0,70,0.00,,BKN075,0.71,VWS V14.01,2013-05-26 22:16:00,
2013-05-26 17:21:00,64.4,54.4,30.07,NNE,16,3.1,3.1,70,0.00,,BKN075,0.71,VWS V14.01,2013-05-26 22:21:00,
2013-05-26 17:26:00,64.2,55.6,30.07,SE,139,0.0,3.1,74,0.00,,BKN120,0.71,VWS V14.01,2013-05-26 22:26:00,
2013-05-26 17:31:00,64.0,55.4,30.07,ESE,118,0.0,3.6,74,0.00,,BKN120,0.71,VWS V14.01,2013-05-26 22:31:00,
2013-05-26 17:36:00,63.9,55.2,30.07,ESE,107,0.0,0.0,74,0.00,,BKN120,0.71,VWS V14.01,2013-05-26 22:36:00,
2013-05-26 17:41:00,63.9,57.8,30.07,SE,126,0.0,0.0,80,0.00,,BKN120,0.71,VWS V14.01,2013-05-26 22:41:00,
2013-05-26 17:46:00,63.9,57.8,30.10,ESE,116,2.7,2.7,80,0.00,,BKN120,0.71,VWS V14.01,2013-05-26 22:46:00,
2013-05-26 17:51:00,63.5,57.4,30.10,ENE,65,0.0,0.0,80,0.00,,BKN120,0.71,VWS V14.01,2013-05-26 22:51:00,
2013-05-26 17:56:00,63.3,57.2,30.10,NE,56,0.0,4.9,80,0.00,,BKN120,0.71,VWS V14.01,2013-05-26 22:56:00,
2013-05-26 18:02:00,63.1,57.0,30.10,NE,51,2.7,4.0,80,0.00,,OVC075,0.71,VWS V14.01,2013-05-26 23:02:00,
2013-05-26 18:07:00,63.0,58.1,30.10,ESE,112,4.5,4.5,84,0.00,,OVC075,0.71,VWS V14.01,2013-05-26 23:07:00,
2013-05-26 18:12:00,63.0,58.1,30.10,ESE,106,3.1,5.4,84,0.00,,OVC075,0.71,VWS V14.01,2013-05-26 23:12:00,
2013-05-26 18:17:00,62.6,57.7,30.07,North,0,4.0,4.5,84,0.00,,OVC075,0.71,VWS V14.01,2013-05-26 23:17:00,
2013-05-26 18:22:00,62.6,57.7,30.07,SE,137,0.0,7.2,84,0.00,,BKN049,0.71,VWS V14.01,2013-05-26 23:22:00,
2013-05-26 18:27:00,62.4,58.7,30.07,ENE,60,2.2,3.6,88,0.00,,BKN049,0.71,VWS V14.01,2013-05-26 23:27:00,
2013-05-26 18:32:00,62.4,58.7,30.07,East,95,2.7,4.9,88,0.00,,BKN049,0.71,VWS V14.01,2013-05-26 23:32:00,
2013-05-26 18:37:00,62.4,58.7,30.07,NE,36,2.2,3.6,88,0.00,,BKN049,0.71,VWS V14.01,2013-05-26 23:37:00,
2013-05-26 18:42:00,62.2,59.6,30.07,East,91,0.0,0.0,91,0.00,,SCT042,0.71,VWS V14.01,2013-05-26 23:42:00,
2013-05-26 18:47:00,62.2,59.6,30.07,ENE,76,3.6,4.9,91,0.00,,SCT042,0.71,VWS V14.01,2013-05-26 23:47:00,
2013-05-26 18:52:00,62.2,59.6,30.07,East,82,2.2,6.3,91,0.00,,SCT042,0.71,VWS V14.01,2013-05-26 23:52:00,
2013-05-26 18:58:00,62.2,59.6,30.07,SE,139,3.1,4.9,91,0.00,,SCT042,0.71,VWS V14.01,2013-05-26 23:58:00,
2013-05-26 19:03:00,62.1,59.4,30.07,SE,131,3.6,6.7,91,0.00,,SCT034,0.71,VWS V14.01,2013-05-27 00:03:00,
2013-05-26 19:08:00,62.1,59.4,30.07,SE,124,4.0,7.6,91,0.00,,SCT034,0.71,VWS V14.01,2013-05-27 00:08:00,
2013-05-26 19:13:00,61.9,59.2,30.07,SE,139,4.9,7.6,91,0.00,,SCT034,0.71,VWS V14.01,2013-05-27 00:13:00,
2013-05-26 19:18:00,61.9,59.2,30.04,SSE,167,0.0,5.8,91,0.00,,SCT034,0.71,VWS V14.01,2013-05-27 00:18:00,
2013-05-26 19:23:00,61.9,59.2,30.04,South,185,0.0,8.1,91,0.00,,SCT110,0.71,VWS V14.01,2013-05-27 00:23:00,
2013-05-26 19:28:00,61.9,59.2,30.04,SE,131,5.4,5.4,91,0.00,,SCT110,0.71,VWS V14.01,2013-05-27 00:28:00,
2013-05-26 19:33:00,61.9,58.1,30.04,SSW,195,0.0,5.4,88,0.00,,SCT110,0.71,VWS V14.01,2013-05-27 00:33:00,
2013-05-26 19:38:00,61.9,58.1,30.04,SE,144,0.0,5.4,88,0.00,,SCT110,0.71,VWS V14.01,2013-05-27 00:38:00,
2013-05-26 19:43:00,61.9,58.1,30.04,SSE,156,2.7,5.4,88,0.00,,SCT110,0.71,VWS V14.01,2013-05-27 00:43:00,
2013-05-26 19:49:00,61.9,58.1,30.04,SE,131,3.6,7.6,88,0.00,,SCT110,0.71,VWS V14.01,2013-05-27 00:49:00,
2013-05-26 19:54:00,61.9,58.1,30.04,ESE,102,2.7,5.8,88,0.00,,SCT110,0.71,VWS V14.01,2013-05-27 00:54:00,
2013-05-26 19:59:00,61.9,58.1,30.04,ESE,110,0.0,5.8,88,0.00,,SCT110,0.71,VWS V14.01,2013-05-27 00:59:00,
2013-05-26 20:04:00,61.9,58.1,30.04,SE,129,5.4,5.4,88,0.00,,BKN110,0.71,VWS V14.01,2013-05-27 01:04:00,
2013-05-26 20:09:00,61.9,58.1,30.04,NE,44,3.6,5.4,88,0.00,,BKN110,0.71,VWS V14.01,2013-05-27 01:09:00,
2013-05-26 20:14:00,61.9,58.1,30.04,SE,141,3.6,8.3,88,0.00,,BKN110,0.71,VWS V14.01,2013-05-27 01:14:00,
2013-05-26 20:19:00,61.9,58.1,30.04,ENE,71,2.7,6.3,88,0.00,,BKN110,0.71,VWS V14.01,2013-05-27 01:19:00,
2013-05-26 20:24:00,61.9,58.1,30.04,SSE,150,0.0,5.8,88,0.00,,OVC110,0.71,VWS V14.01,2013-05-27 01:24:00,
2013-05-26 20:29:00,61.9,58.1,30.04,NE,48,0.0,5.8,88,0.00,,OVC110,0.71,VWS V14.01,2013-05-27 01:29:00,
2013-05-26 20:34:00,61.9,58.1,30.04,ESE,109,3.1,5.4,88,0.00,,OVC110,0.71,VWS V14.01,2013-05-27 01:34:00,
2013-05-26 20:39:00,61.9,58.1,30.04,NE,45,0.0,5.8,88,0.00,,OVC110,0.71,VWS V14.01,2013-05-27 01:39:00,
2013-05-26 20:45:00,61.9,58.1,30.04,ESE,115,0.0,8.3,88,0.00,,SCT060,0.71,VWS V14.01,2013-05-27 01:45:00,
2013-05-26 20:50:00,61.9,58.1,30.04,NE,48,3.6,5.4,88,0.00,,SCT060,0.71,VWS V14.01,2013-05-27 01:50:00,
2013-05-26 20:55:00,61.9,58.1,30.04,North,357,0.0,4.0,88,0.00,,SCT060,0.71,VWS V14.01,2013-05-27 01:55:00,
2013-05-26 21:00:00,61.9,58.1,30.04,NNE,22,3.6,4.0,88,0.00,,SCT060,0.71,VWS V14.01,2013-05-27 02:00:00,
2013-05-26 21:05:00,61.7,58.0,30.07,NNE,22,0.0,4.0,88,0.00,,BKN095,0.71,VWS V14.01,2013-05-27 02:05:00,
2013-05-26 21:10:00,61.5,57.8,30.07,ESE,105,3.6,3.6,88,0.00,,BKN095,0.71,VWS V14.01,2013-05-27 02:10:00,
2013-05-26 21:15:00,61.3,57.6,30.07,NNE,14,2.2,2.2,88,0.00,,BKN095,0.71,VWS V14.01,2013-05-27 02:15:00,
2013-05-26 21:20:00,61.2,57.4,30.07,NE,47,0.0,3.1,88,0.00,,BKN095,0.71,VWS V14.01,2013-05-27 02:20:00,
2013-05-26 21:25:00,61.0,58.3,30.07,ENE,58,5.4,5.4,91,0.00,,SCT095,0.71,VWS V14.01,2013-05-27 02:25:00,
2013-05-26 21:30:00,60.8,58.2,30.04,SSE,153,3.6,3.6,91,0.00,,SCT095,0.71,VWS V14.01,2013-05-27 02:30:00,
2013-05-26 21:35:00,60.6,59.0,30.04,ENE,69,10.1,10.1,94,0.00,,SCT095,0.71,VWS V14.01,2013-05-27 02:35:00,
2013-05-26 21:40:00,60.4,59.9,30.04,East,88,0.0,5.4,98,0.00,,SCT095,0.71,VWS V14.01,2013-05-27 02:40:00,
2013-05-26 21:45:00,60.4,59.9,30.07,NNE,18,2.7,6.3,98,0.00,,BKN095,0.71,VWS V14.01,2013-05-27 02:45:00,
2013-05-26 21:51:00,60.3,59.7,30.07,NE,49,6.3,6.3,98,0.00,,BKN095,0.71,VWS V14.01,2013-05-27 02:51:00,
2013-05-26 21:56:00,60.1,60.1,30.07,NNW,342,3.1,4.5,100,0.08,,BKN095,0.79,VWS V14.01,2013-05-27 02:56:00,
2013-05-26 22:01:00,60.1,60.1,30.07,NNW,344,0.0,5.8,100,0.12,,BKN095,0.83,VWS V14.01,2013-05-27 03:01:00,
2013-05-26 22:10:00,59.7,59.7,30.07,ENE,70,5.8,8.3,100,0.28,,,0.98,VWS V14.01,2013-05-27 03:10:00,
2013-05-26 22:15:00,59.5,59.5,30.04,NE,45,0.0,8.7,100,0.31,,,1.02,VWS V14.01,2013-05-27 03:15:00,
2013-05-26 22:20:00,59.4,59.4,30.04,NE,43,5.4,12.8,100,0.35,,,1.06,VWS V14.01,2013-05-27 03:20:00,
2013-05-26 22:25:00,59.2,59.2,30.04,North,0,4.0,11.0,100,0.39,,,1.10,VWS V14.01,2013-05-27 03:25:00,
2013-05-26 22:30:00,59.2,59.2,30.07,ESE,114,5.8,11.0,100,0.51,,,1.22,VWS V14.01,2013-05-27 03:30:00,
2013-05-26 22:35:00,59.0,59.0,30.07,NE,45,6.3,6.3,100,0.75,,,1.46,VWS V14.01,2013-05-27 03:35:00,
2013-05-26 22:40:00,58.8,58.8,30.07,North,0,3.1,8.7,100,0.87,,,1.58,VWS V14.01,2013-05-27 03:40:00,
2013-05-26 22:45:00,59.0,59.0,30.13,North,357,6.3,10.1,100,0.91,,,1.61,VWS V14.01,2013-05-27 03:45:00,
2013-05-26 22:50:00,59.0,59.0,30.13,WNW,303,5.4,11.0,100,0.98,,,1.69,VWS V14.01,2013-05-27 03:50:00,
2013-05-26 22:55:00,59.0,59.0,30.13,NNW,337,8.7,8.7,100,1.02,,,1.73,VWS V14.01,2013-05-27 03:55:00,
2013-05-26 23:00:00,59.0,59.0,30.13,NE,35,2.7,12.8,100,1.02,,,1.81,VWS V14.01,2013-05-27 04:00:00,
2013-05-26 23:05:00,59.0,59.0,30.13,North,0,5.4,8.3,100,0.98,,,1.81,VWS V14.01,2013-05-27 04:05:00,
2013-05-26 23:10:00,59.2,59.2,30.13,NNE,31,5.4,8.7,100,0.94,,,1.85,VWS V14.01,2013-05-27 04:10:00,
2013-05-26 23:15:00,59.2,59.2,30.10,NE,39,2.7,8.3,100,0.87,,,1.85,VWS V14.01,2013-05-27 04:15:00,
2013-05-26 23:20:00,59.4,59.4,30.10,SE,144,4.0,8.1,100,0.94,,,1.97,VWS V14.01,2013-05-27 04:20:00,
2013-05-26 23:25:00,59.4,59.4,30.10,ENE,74,5.4,9.6,100,0.94,,,2.01,VWS V14.01,2013-05-27 04:25:00,
2013-05-26 23:30:00,59.4,59.4,30.10,SE,136,4.0,7.6,100,1.02,,,2.13,VWS V14.01,2013-05-27 04:30:00,
2013-05-26 23:35:00,59.4,59.4,30.10,NE,40,6.3,10.5,100,0.98,,,2.20,VWS V14.01,2013-05-27 04:35:00,
2013-05-26 23:40:00,59.2,59.2,30.10,East,98,4.9,8.3,100,0.79,,,2.24,VWS V14.01,2013-05-27 04:40:00,
2013-05-26 23:45:00,59.2,59.2,30.07,East,81,5.4,11.0,100,0.83,,,2.40,VWS V14.01,2013-05-27 04:45:00,
2013-05-26 23:50:00,59.2,59.2,30.07,ESE,120,8.1,8.1,100,0.83,,,2.44,VWS V14.01,2013-05-27 04:50:00,
2013-05-26 23:55:00,59.2,59.2,30.07,ESE,120,3.1,10.5,100,0.75,,,2.44,VWS V14.01,2013-05-27 04:55:00,